Home   Weather   Tallahassee   Past weeks

Flag for USA Past Weather in Tallahassee, Florida, USA — Yesterday and Last 2 Weeks

50 °F


Feels Like: 49 °F
Forecast: 55 / 83 °F
Wind: 3 mph from West

Location: Tallahassee Regional Airport

Current Time: Oct 25, 2016 at 7:59:18 AM

Latest Report: Oct 25, 2016 at 6:53 AM

Visibility: 10 mi

Pressure: 30.18 "Hg

Humidity: 89%

Dew Point: 47 °F

Location of TallahasseeLocation

Past Weather in Tallahassee — Graph


Tallahassee Temperature Yesterday

Maximum temperature yesterday: 81 °F (at 2:53 PM)
Minimum temperature yesterday: 44 °F (at 4:53 AM)
Average temperature yesterday: 62 °F

High & Low Weather Summary for the Past Weeks

High89 °F (Oct 18, 3:53 PM)97% (Oct 16, 4:53 AM)30.29 "Hg (Oct 16, 4:53 AM)
Low41 °F (Oct 23, 6:53 AM)20% (Oct 22, 4:53 PM)29.85 "Hg (Oct 21, 2:53 PM)
Average71 °F63%30.10 "Hg
* Reported Oct 10 5:53 AM — Oct 25 5:53 AM, Tallahassee, Weather by CustomWeather, © 2016

Note: Actual official high and low records may vary slightly from our data, if they occured in-between our weather recording intervals... More about our weather records


Tallahassee Weather History for the Previous 24 Hours

Scroll right to see more
Time TempWeatherWind HumidityBarometerVisibility
5:53 AM
Tue, Oct 25
52 °FClear.No wind86%30.17 "Hg10 mi
4:53 AM51 °FClear.3 mph86%30.17 "Hg10 mi
3:53 AM51 °FClear.No wind86%30.18 "Hg10 mi
2:53 AM52 °FClear.No wind86%30.18 "Hg10 mi
1:53 AM54 °FClear.No wind80%30.18 "Hg10 mi
12:53 AM55 °FClear.No wind80%30.19 "Hg10 mi
11:53 PM
Mon, Oct 24
57 °FClear.No wind72%30.20 "Hg10 mi
10:53 PM58 °FPassing clouds.No wind72%30.20 "Hg10 mi
9:53 PM60 °FPassing clouds.No wind65%30.20 "Hg10 mi
8:53 PM63 °FPassing clouds.No wind60%30.19 "Hg10 mi
7:53 PM67 °FPassing clouds.No wind51%30.18 "Hg10 mi
6:53 PM74 °FPartly sunny.No wind38%30.17 "Hg10 mi
5:53 PM81 °FPartly sunny.5 mph25%30.16 "Hg10 mi
4:53 PM81 °FPartly sunny.8 mph25%30.17 "Hg10 mi
3:53 PM81 °FPartly sunny.8 mph25%30.17 "Hg10 mi
2:53 PM81 °FPartly sunny.8 mph25%30.19 "Hg10 mi
1:53 PM80 °FPartly sunny.6 mph25%30.22 "Hg10 mi
12:53 PM78 °FPartly sunny.7 mph30%30.25 "Hg10 mi
11:53 AM76 °FPartly sunny.5 mph35%30.28 "Hg10 mi
10:53 AM71 °FPartly sunny.No wind44%30.29 "Hg10 mi
9:53 AM60 °FScattered clouds.No wind65%30.29 "Hg10 mi
8:53 AM50 °FSunny.No wind83%30.28 "Hg10 mi
7:53 AM44 °FScattered clouds.No wind85%30.27 "Hg10 mi
Weather by CustomWeather, © 2016

See weather overviewHow to use our weather pages